Regional Weather Roundup
Issued by NWS

Home | Current Version | Previous Version | Text Only | Print | Product List | Glossary On
Versions: 1 2 3 4 5 6 7 8 9 10 11 12 13 14 15 16 17 18 19 20 21 22 23 24 25 26 27 28 29 30 31 32 33 34 35 36 37 38 39 40 41 42 43 44 45 46 47 48 49 50
000
ASUS44 KLUB 241101
RWRTX
WEST TEXAS WEATHER ROUNDUP
NATIONAL WEATHER SERVICE LUBBOCK TX
600 AM CDT WED AUG 24 2016

NOTE: "FAIR" INDICATES FEW OR NO CLOUDS BELOW 12,000 FEET WITH NO
SIGNIFICANT WEATHER AND/OR OBSTRUCTIONS TO VISIBILITY.

TXZ004-006>008-010-012-014-016-OKZ002-241200-
TEXAS PANHANDLE/OKLAHOMA PANHANDLE

CITY           SKY/WX    TMP DP  RH WIND       PRES   REMARKS
AMARILLO       CLOUDY    68  63  84 SE7       30.11S
BORGER         LGT RAIN  73  63  70 S17G25    30.06F
CANADIAN       LGT RAIN  70  64  79 W8        30.01F
DALHART        CLOUDY    67  58  72 S6        30.12R
DUMAS          CLOUDY    66  63  89 S10       30.09R
GUYMON         CLOUDY    68  63  84 S8        30.03R
HEREFORD       CLOUDY    70  59  68 SW6       30.11R
$$

TXZ026-029-035-045-048-241200-
SOUTHERN PANHANDLE/SOUTH PLAINS/ROLLING PLAINS

CITY           SKY/WX    TMP DP  RH WIND       PRES   REMARKS
CHILDRESS      CLOUDY    71  66  84 S6        30.04F
SEMINOLE       RAIN      65  63  91 W12G23    30.17R
LUBBOCK        CLOUDY    65  62  90 SE7       30.09F
PLAINVIEW      LGT RAIN  64  60  89 SE6       30.07F
SNYDER           N/A     68  64  85 S6        30.11S
$$

TXZ052-054-060>062-072-078-127-140-154-169-241200-
PERMIAN BASIN/CONCHO VALLEY/BIG COUNTRY/EDWARDS PLATEAU

CITY           SKY/WX    TMP DP  RH WIND       PRES   REMARKS
ABILENE        CLEAR     72  67  84 S12       30.08R
BIG SPRING     PTCLDY    73  66  79 SE6       30.13R
BROWNWOOD      PTCLDY    72  68  88 SE8       30.09S
JUNCTION       CLEAR     74  69  85 S6        30.10F
MIDLAND        PTCLDY    70  66  87 N6        30.10S
ODESSA         MOCLDY    69  65  86 NE10      30.11F
SAN ANGELO     CLEAR     73  68  84 S5        30.07S
SONORA         CLEAR     73  68  83 S8        30.14S
SWEETWATER     CLEAR     71  68  92 S10       30.12R
WINK           LGT RAIN  64  61  90 N10       30.12F
$$

TXZ055-058-074-075-080-082-241200-
FAR WEST/SOUTHWEST MOUNTAINS/TRANS PECOS

CITY           SKY/WX    TMP DP  RH WIND       PRES   REMARKS
ALPINE         CLOUDY    69  62  79 SW6       30.25R
DRYDEN           N/A     73  66  78 E3        30.07R
EL PASO        MOCLDY    68  64  87 SE7       30.10S
FORT STOCKTON  MOCLDY    72  65  78 W13G21    30.13R
MARFA          CLOUDY   N/A N/A N/A W8        30.24R
PECOS          CLOUDY    65  62  87 NW8       30.15S
PRESIDIO       FAIR      76  59  55 S3        30.09S
$$

TXZ014-016-019-021>030-083-241200
TEXAS TECH WEST TEXAS MESONET/TEXAS PANHANDLE/NORTHERN SOUTH PLAINS

CITY           SKY/WX    TMP DP  RH WIND       PRES   REMARKS
ABERNATHY 5ENE   N/A     64  61  90 SE13      30.10F
AMARILLO 9NNE    N/A     67  66  97 S7        30.11R
AMARILLO 7SSE    N/A     68  63  82 SE5       30.12S
AMHERST 1NE      N/A     63  59  87 S8        30.12F
BOOTLEG 11WNW    N/A     66  56  70 SW14      30.16S
CANADIAN 6E      N/A     68  64  85 W8        30.02S
CAPROCK CYN SP   N/A     71  62  74 W6        30.08S
CHILDRESS 2NNE   N/A     72  65  77 SW9       30.05F
CLARENDON 2WSW   N/A     70  64  81 S7        30.08F
CLAUDE 12SW      N/A     67  63  86 SE7       30.11F
DIMMITT 2NE      N/A     66  57  72 SW9       30.13R
FLOYDADA 2NNE    N/A     67  60  79 SW10      30.10F
FRIONA 2NE       N/A     66  55  67 SW13      30.14S
GOODLETT 3W      N/A     71  65  83 SW6       30.04S
HART 3N          N/A     66  57  73 SW8       30.13R
HEREFORD 2NW     N/A     69  54  58 SW10      30.13S
MCLEAN 1E        N/A     70  62  76 SW10      30.06S
MEMPHIS 1NE      N/A     70  65  83 CALM      30.06S
MULESHOE 2SSW    N/A     64  57  79 S6        30.13S
OLTON 6S         N/A     64  59  83 S10       30.12R
PALO DURO SP     N/A     69  63  81 SE7       30.12F
PAMPA 2E         N/A     72  62  70 S10       30.08F
PLAINVIEW 1S   LGT RAIN  65  61  87 S8        30.10S
SILVERTON 7ESE   N/A     69  59  71 SW15      30.08F
TULIA 2ENE       N/A     67  60  80 NW3       30.12F
TURKEY 2WSW      N/A     71  65  81 NW7       30.07R
$$

TXZ033>036-039>041-045>048-241200
TEXAS TECH WEST TEXAS MESONET/SOUTH PLAINS

CITY           SKY/WX    TMP DP  RH WIND       PRES   REMARKS
AIKEN 3WSW       N/A     64  62  93 SW8       30.11F
ANDREWS 2NE      N/A     66  62  85 N3        30.15F
ANTON 6SSW       N/A     63  61  91 S6        30.12R
BROWNFIELD 2S    N/A     66  61  85 S9        30.13R
DENVR CTY 7WNW RAIN      63  60  90 SW14      30.19R
GAIL 2ESE        N/A     69  63  80 W5        30.11S
LAMESA 2SE       N/A     67  62  85 E2        30.13S
LEVELLAND 4S     N/A     64  60  87 S3        30.14S
LUBBOCK 3WNW     N/A     65  62  89 W3        30.11S
MORTON 1ENE      N/A     64  59  82 S13       30.14R
ODONNELL 1N      N/A     66  61  84 SW3       30.12F
PLAINS 3N        N/A     64  61  91 SW9       30.18R
RALLS 1SE        N/A     67  61  80 S5        30.12F
REESE CENTER     N/A     65  61  88 W10       30.13R
SEAGRAVES 1SW  RAIN      65  63  91 SW12      30.16R
SEMINOLE 2NNE  LGT RAIN  66  62  88 W10G17    30.17R
SLATON 2NE       N/A     68  62  80 S5        30.12S
SNYDER 3E        N/A     70  65  84 S8        30.11R
SUNDOWN 8SW      N/A     63  61  93 SW8       30.15R
TAHOKA 3NNE      N/A     67  62  83 S5        30.12
WOLFFORTH 6SSW   N/A     66  62  86 S10       30.11F
$$

TXZ031-032-036>038-042>044-241200-
TEXAS TECH WEST TEXAS MESONET/ROLLING PLAINS

CITY           SKY/WX    TMP DP  RH WIND       PRES   REMARKS
ASPERMONT 3NE    N/A     70  65  83 S5        30.08S
FLUVANNA 3WNW    N/A     69  60  73 S6        30.12S
GRAHAM 5SSW      N/A     68  61  76 SW5       30.12S
GUTHRIE 10WSW    N/A     69  65  88 S6        30.07R
HASKELL 1NW      N/A     72  66  82 S7        30.07S
JAYTON 1SSE      N/A     71  65  81 S7        30.08S
KNOX CITY 3NW    N/A     72  65  79 S9        30.06S
LK A HENRY 1NW   N/A     71  61  69 S2        30.10S
NORTHFIELD 1S    N/A     72  67  86 SE3       30.05F
ODELL 4ENE       N/A     74  68  81 S10       30.04S
PADUCAH 10SW     N/A     69  66  89 SW7       30.06S
POST 1NE         N/A     69  62  78 SE5       30.10S
RRING SPRGS 3N   N/A     69  65  87 SW9       30.08F
SEYMOUR 3NW      N/A     73  65  76 S8        30.05S
SPUR 1W          N/A     69  65  87 SW2       30.08F
WEINERT 2NNE     N/A     69  67  92 S6        30.07S
WHITE RVR 6NE    N/A     68  62  81 S5        30.10F
$$

TXZ052-054-060>062-072-078-127-140-154-169-241200-
TEXAS TECH WEST TEXAS MESONET/PERMIAN BASIN/
CONCHO VALLEY/BIG COUNTRY/EDWARDS PLATEAU

CITY           SKY/WX    TMP DP  RH WIND       PRES   REMARKS
COYANOSA 2N      N/A     69  64  83 NW13      30.14R
JUNCTION 1SSW    N/A     74  69  87 S8        30.11S
MERTZON 3NNE     N/A     72  68  85 S9        30.09F
SAN ANGELO 7NW   N/A     73  66  78 SE7       30.08S
STRLNG CT 4WSW   N/A     69  66  89 SE3       30.11R
ST LAWRNCE 5SW   N/A     72  63  73 NW8       30.11R
WALL 1E          N/A     71  65  81 SE3       30.10S
$$

TXZ055-058-074-075-080-082-241200-
TEXAS TECH WEST TEXAS MESONET/FAR WEST/SOUTHWEST MOUNTAINS/TRANS PECOS

CITY           SKY/WX    TMP DP  RH WIND       PRES   REMARKS
PRSMN GAP BBNP   N/A     76  64  67 S2        30.11R
GUADLPE MTN NP   N/A     58  57  96 SE3       30.27R
$$




USA.gov is the U.S. government's official web portal to all federal, state and local government web resources and services.